Regional Weather Roundup
Issued by NWS

Home | Current Version | Previous Version | Text Only | Print | Product List | Glossary On
Versions: 1 2 3 4 5 6 7 8 9 10 11 12 13 14 15 16 17 18 19 20 21 22 23 24 25 26 27 28 29 30 31 32 33 34 35 36 37 38 39 40 41 42 43 44 45 46 47 48 49 50
984
ASUS44 KBMX 300710
RWRAL

ALABAMA REGIONAL WEATHER ROUNDUP
NATIONAL WEATHER SERVICE BIRMINGHAM AL
200 AM CDT TUE AUG 30 2016

NOTE: "FAIR" INDICATES FEW OR NO CLOUDS BELOW 12,000 FEET
WITH NO SIGNIFICANT WEATHER AND/OR OBSTRUCTIONS TO VISIBILITY.

THE REMARK "TC" DENOTES TEMPERATURE IN DEGREES CELSIUS.

ALZ001>011-014-016>018-020-300800-
NORTH ALABAMA

CITY           SKY/WX    TMP DP  RH WIND       PRES   REMARKS
MUSCLE SHOALS  CLEAR     73  70  90 CALM      30.07F
HUNTSVILLE     CLEAR     75  70  84 E7        30.07S
DECATUR        CLEAR     72  70  93 CALM      30.07S
HALEYVILLE     NOT AVBL
GADSDEN        CLEAR     71  68  90 CALM      30.08R
$$

ALZ012-013-022-023-030>036-040>044-300800-
WEST CENTRAL ALABAMA

CITY           SKY/WX    TMP DP  RH WIND       PRES   REMARKS
TUSCALOOSA     CLEAR     74  73  97 NE3       30.02S
$$

ALZ015-024>027-033>036-040>044-300800-
CENTRAL ALABAMA

CITY           SKY/WX    TMP DP  RH WIND       PRES   REMARKS
BIRMINGHAM     CLEAR     79  68  69 VRB3      30.08R
MONTGOMERY     CLEAR     77  68  73 E7        30.01S
SHELBY CO ARPT PTCLDY    76  70  82 CALM      30.05R
MAXWELL AFB    PTCLDY    77  72  85 NE3       30.01S
GREENVILLE     FAIR      76  69  79 NE7       29.99F
$$

ALZ019-021-028-029-037-038-045>048-300800-
EAST CENTRAL ALABAMA

CITY           SKY/WX    TMP DP  RH WIND       PRES   REMARKS
ANNISTON       CLEAR     75  68  78 CALM      30.07S
ALEXANDER CITY CLEAR     77  76  96 CALM      30.05F
AUBURN         CLEAR     74  69  85 E6        30.06S
$$

ALZ051>064-300800-
SOUTHWEST ALABAMA

CITY           SKY/WX    TMP DP  RH WIND       PRES   REMARKS
MOBILE         CLEAR     77  71  82 NE8       29.96F
BROOKLEY FIELD CLEAR     81  73  76 NE12      29.96S
EVERGREEN      CLEAR     73  70  90 CALM      29.99S
$$

ALZ049-050-065>069-300800-
SOUTHEAST ALABAMA

CITY           SKY/WX    TMP DP  RH WIND       PRES   REMARKS
DOTHAN         PTCLDY    77  73  87 E10       30.04S
OZARK          CLEAR     74  72  93 NE6       29.99F
TROY           CLEAR     73  72  96 E5        30.02S
EUFAULA        FAIR      77  71  82 E6        30.01F
$$




USA.gov is the U.S. government's official web portal to all federal, state and local government web resources and services.